Regional Weather Roundup
Issued by NWS Nashville, TN

Home | Current Version | Previous Version | Text Only | Print | Product List | Glossary On
Versions: 1 2 3 4 5 6 7 8 9 10 11 12 13 14 15 16 17 18 19 20 21 22 23 24 25 26 27 28 29 30 31 32 33 34 35 36 37 38 39 40 41 42 43 44 45 46 47 48 49 50
000
ASUS44 KOHX 231810
RWROHX
MIDDLE TENNESSEE HOURLY WEATHER ROUNDUP
NATIONAL WEATHER SERVICE NASHVILLE TN
100 PM CDT MON APR 23 2018

NOTE: "FAIR" INDICATES FEW OR NO CLOUDS BELOW 12,000 FEET WITH
NO SIGNIFICANT WEATHER AND/OR OBSTRUCTIONS TO VISIBILITY.

* THESE REPORTS ARE NOT UNDER NWS QUALITY CONTROL AND MAY NOT
  REPORT WEATHER SUCH AS PRECIPITATION AND FOG.


TNZ005>011-023>034-057-059-062>066-078-080-231900
...NORTHERN MIDDLE TENNESSEE...

CITY           SKY/WX    TMP DP  RH WIND       PRES   REMARKS
CLARKSVILLE    LGT RAIN  61  57  87 SE10      29.92S FOG
CROSSVILLE     CLOUDY    54  52  93 E5        30.00F
GALLATIN       SUNNY     66  61  82 E7        29.95F
LEBANON        PTSUNNY   68  57  68 S10       29.90F
LIVINGSTON     PTSUNNY   57  54  88 E9G17     29.98S
NASHVILLE      PTSUNNY   65  55  70 S10       29.91F
PORTLAND       SUNNY     64  59  82 VRB7      29.93F
ROCKWOOD       CLOUDY    55  54  94 E12G20    30.00F FOG
SMYRNA         PTSUNNY   69  58  67 SE15      29.91F
SPARTA         PTSUNNY   59  55  88 E9        29.97S FOG
SPRINGFIELD    SUNNY     61  59  94 SE10      29.91F
WEST NASHVILLE PTSUNNY   63  55  77 SW7       29.89F
$$
TNZ056-058-060-061-075>077-079-093>097-231900
...SOUTHERN MIDDLE TENNESSEE...

CITY           SKY/WX    TMP DP  RH WIND       PRES   REMARKS
COLUMBIA       PTSUNNY   61  61 100 CALM      29.90S FOG
FAYETTEVILLE   MOSUNNY   68  54  60 S8G15     29.90F
LEWISBURG      SUNNY     68  54  60 S12G17    29.90F
MCMINNVILLE    PTSUNNY   64  57  77 E12G18    29.93F
MURFREESBORO   MOSUNNY   68  57  68 S13       29.90F
PULASKI        MOSUNNY   64  57  77 S6        29.91F
SHELBYVILLE    SUNNY     68  59  73 VRB7      29.90F
TULLAHOMA      PTSUNNY   68  55  64 SE10      29.90F
WINCHESTER     MOSUNNY   68  55  64 S9        29.91F
$$


...KEY TO REMARKS...
VSB - VISIBILITY IN MILES
WCI - WIND CHILL INDEX
HX  - HEAT INDEX




USA.gov is the U.S. government's official web portal to all federal, state and local government web resources and services.